Portada
METAR-TAF:

METAR-TAF

Aeropuertos :

Chichén Itzá, México

Aeropuerto Internacional de Kaua

latitud: 20-38-30N, longitud: 088-26-58W, altitud: 31 m

Observación

El informe se hizo hace 17 horas y 2 minutos, a las 21:45 UTC
Viento 8 kt del oeste
Temperatura 35°C
Humedad 44%
Presión 1005 hPa
Visibilidad: 12.9 km
Escasas nubes a una altura de 3000 ft

METAR: MMCT 222145Z 27008KT 8SM FEW030 35/21 A2968 RMK 8/100 HZY MSGTX MMMD

Hora: 08:47 (14:47 UTC)


TAF: falta

Observaciones y pronósticos meteorológicos de más de 4000 aeropuertos (mensajes METAR y TAF).

Los puntos amarillos y rojos representan las estaciones disponibles.

Ponga el ratón en el punto deseado para ver el nombre de la estación.

Haga clic para ver las observaciones y los pronósticos meteorológicos.

Para cambiar el mapa : haga clic en los botones verdes con una cruz de color negro para hacer un zoom, en el botón verde con un guión para alejar o en las flechas verdes para mapas adyacentes.


METAR-TAF: